Simultaneous Nadir Overpasses (SNOs) Predictions

Prediction of SNOs between AQUA and METOP-B Satellite Orbit:

Table of predicted SNOs for the next 14.0 days since TLE Epoch: 7/29/2016
Index Date (AQUA) Time (AQUA) Lat,Lon (AQUA) SZA (AQUA ) Date (METOP-B) Time (METOP-B) Lat,Lon (METOP-B) SZA (METOP-B ) Distance(km) Time Diff (sec)
1 07/30/2016 10:02:55 -73.74,-156.36 124.55 07/30/2016 10:02:02 -73.72,-156.32 124.57 3.23 53
2 07/30/2016 10:52:23 73.78, 11.19 55.50 07/30/2016 10:52:40 73.80, 11.21 55.52 2.19 17
3 07/30/2016 11:42:03 -74.51, 177.15 123.70 07/30/2016 11:43:08 -74.48,-179.75 123.85 92.24 65
4 08/02/2016 05:37:10 -73.73, -89.90 123.86 08/02/2016 05:36:27 -73.72, -89.92 123.86 1.81 43
5 08/02/2016 06:26:38 73.77, 77.65 56.20 08/02/2016 06:27:05 73.79, 77.60 56.22 2.71 27
6 08/05/2016 01:11:25 -73.72, -23.45 123.12 08/05/2016 01:10:52 -73.71, -23.53 123.12 2.77 33
7 08/05/2016 02:00:53 73.77, 144.09 56.94 08/05/2016 02:01:30 73.78, 143.98 56.96 3.58 37
8 08/07/2016 20:45:39 -73.72, 42.99 122.34 08/07/2016 20:45:15 -73.76, 42.98 122.30 3.80 24
9 08/07/2016 21:35:08 73.83,-149.60 57.78 08/07/2016 21:35:53 73.82,-149.52 57.77 2.59 45
10 08/10/2016 15:30:17 73.16, -57.04 57.86 08/10/2016 15:29:10 73.13, -59.36 57.94 75.09 67
11 08/10/2016 16:19:54 -73.73, 109.41 121.52 08/10/2016 16:19:40 -73.75, 109.37 121.50 2.64 14
12 08/10/2016 17:09:22 73.79, -83.08 58.55 08/10/2016 17:10:18 73.81, -83.15 58.57 3.36 56




NCC Satellite Simultaneous Nadir Overpasses (SNOs) Prediction Service
